Location: Chandolas
(44.4033°N, 4.2533°E)
Time: 10:58:42
(UTC+00:00)

Cosmos 1459 Rocket - Pass Details

Date: 15 November 2019
Orbit: 938 x 999 km, 83.0° (Epoch: 15 December)

Event Time Altitude Azimuth Distance (km) Brightness Sun altitude
Rises 05:09:41 0° 191° (SSW) 3,618 7.0 -15.9°
Reaches altitude 10° 05:12:09 10° 194° (SSW) 2,685 6.3 -15.4°
Maximum altitude 05:18:18 74° 279° (W) 1,009 3.9 -14.4°
Drops below altitude 10° 05:24:36 10° 5° (N) 2,746 6.3 -13.3°
Sets 05:27:09 0° 7° (N) 3,706 7.0 -12.8°
